STARLINK-1045 (44750 NORAD) Tracking and Keplerian Element Data

This shows tracking and keplerian element data for the satellite.

Feedback or suggestion? Click here.




ElementValue
Catalog44750
NameSTARLINK-1045
Epoch Orbit161
Epoch Day93.91667824
Epoch Year2020
RAAN233.641
Inclination53.0003
Eccentricity0.0001268
Argument of Perigee80.8378
Mean Anonmoly103.8599
Mean Motion15.0558295
Decay Rate8.75E-05
L11 44750U 19074AP 20093.91667824 .00008750 00000-0 61893-3 0 9998
L22 44750 53.0003 233.6410 0001268 80.8378 103.8599 15.05582950 1616

Live tracking and technical data element details for STARLINK-1045 (NORAD 44750). STARLINK-1045 can be tracked NOW for your location showing map with azimuth and elevation plus other details from your city location.

Track the satellite on the map from your city or location and see movement details for azimuth, elevation, latitude, longitude, range, height, and movement on the map or in text.







IsCatalogInMostPopularTable: catalog: 44750, numindb: 32
Update: records affected: 1



GetName: 44750 STARLINK-1045

Hit Count: updated at: Mon, 06 Apr 2020 15:04:12 GMT